Location: Unspecified
(0.0000°N, 0.0000°E)
Time: 23:28:54
(UTC+02:00)

Centaur D-1AR AC-41 - Visible Passes

Search period start: 25 June 2016 00:00
Search period end: 05 July 2016 00:00
Orbit: 641 x 36200 km, 21.8° (Epoch: 23 June)

Date Brightness Start Highest point End Pass type
(mag) Time Alt. Az. Time Alt. Az. Time Alt. Az.
25 Jun 11.5 21:54:07 10° W 22:32:11 12° W 23:23:10 10° W visible
26 Jun 4.1 06:51:01 18° W 06:55:04 35° NNW 06:58:33 10° NE visible
26 Jun 5.7 18:22:56 10° WNW 19:57:36 52° W 04:28:16 10° E visible
27 Jun 8.4 15:43:15 10° WNW 16:46:21 85° NE 01:21:55 52° SSW visible
28 Jun 7.2 13:10:43 10° NW 20:16:10 66° SSE 22:58:04 44° SE visible
29 Jun 6.2 10:40:34 10° NNW 18:40:34 37° ESE 20:31:08 10° ESE visible
30 Jun 11.6 19:52:54 10° W 21:14:27 28° W 00:27:25 10° WSW visible
01 Jul 3.9 05:37:34 66° N 05:37:34 66° N 05:41:27 10° ENE visible
01 Jul 8.6 17:00:09 10° WNW 18:32:40 69° WSW 02:34:08 34° SW visible
02 Jul 7.8 14:24:37 10° NW 19:02:23 73° SSE 00:10:16 57° S visible
03 Jul 6.7 11:53:28 10° NW 19:42:45 55° SE 21:46:23 26° ESE visible
